Location: Bower Park
(37.8853°N, 89.4912°W)
Time: 05:10:13
(UTC+00:00)

Daily predictions for brighter satellites

Satellite Brightness Start Highest point End
(mag) Time Altitude Azimuth Time Altitude Azimuth Time Altitude Azimuth
NOSS 2-3 (E) 3.6 00:00:44 10° SW 00:04:25 57° NW 00:06:40 21° NNE
Okean 1 4.4 00:03:04 10° SSE 00:04:57 22° SE 00:04:57 22° SE
NOSS 2-3 (D) 3.5 00:02:28 10° SW 00:06:12 60° NW 00:08:20 23° NNE
Resurs 1-3 3.9 00:02:32 10° SE 00:06:33 40° ENE 00:10:34 10° N
COSMO-SKYMED 1 2.5 00:04:34 21° NNE 00:07:06 55° E 00:11:07 10° S
Cosmos 2263 Rocket 2.8 00:03:21 10° N 00:08:28 33° ENE 00:10:29 26° E
Cosmos 1900 4.2 00:07:36 10° NNW 00:12:38 75° ENE 00:17:32 10° SE
COSMOS 2455 4.1 00:09:11 10° SSE 00:13:09 22° ESE 00:13:09 22° ESE
Cosmos 1538 Rocket 4.4 00:11:34 10° N 00:16:32 40° ENE 00:18:32 29° ESE
Cosmos 1553 Rocket 4.2 00:11:04 10° SSE 00:16:47 44° E 00:21:03 18° NNE
Cosmos 1726 Rocket 4.4 00:17:02 10° SSW 00:21:35 54° W 00:26:07 10° N
Cosmos 2227 Rocket 2.0 00:16:10 10° NNW 00:21:50 77° ENE 00:27:28 10° SSE
Meteor 2-2 Rocket 4.1 00:22:59 10° S 00:28:36 67° E 00:32:13 22° NNE
SL-19 R/B 4.1 00:24:39 10° SSE 00:29:52 65° ENE 00:35:22 10° N
Cosmos 1697 Rocket 4.1 00:27:10 10° SW 00:32:12 34° WNW 00:37:18 10° N
ATLAS CENTAUR R/B 4.0 00:30:38 10° WNW 00:32:27 14° WSW 00:34:14 10° SSW
Spot 4 Rocket 3.9 00:28:01 10° SSE 00:33:06 85° ENE 00:38:14 10° NNW
YAOGAN 1 2.4 00:30:16 10° SSE 00:34:30 89° ENE 00:38:47 10° NNW
SJ-7 4.4 00:31:49 10° SSE 00:39:34 - NNW 00:34:46 56° S
H-II Stage 2 4.4 00:32:12 10° W 00:38:19 20° SW 00:41:03 10° S
IRAS Rocket 4.0 00:36:12 10° SSE 00:41:41 81° ENE 00:47:10 10° NNW
Cosmos 1898 Rocket 3.3 00:37:34 10° SSW 00:42:42 89° WNW 00:44:16 47° NNE
Cosmos 1244 Rocket 4.3 00:37:32 10° N 00:43:48 70° E 00:49:58 10° SSE
DMSP B5D1-3 4.3 00:44:15 66° ENE 00:44:40 70° ESE 00:49:41 10° S
Cosmos-2242 3.4 00:45:31 10° SSW 00:49:41 59° W 00:50:38 46° NNW
Meteor 2-10 4.2 00:49:42 10° NNW 00:55:06 77° W 01:00:39 10° S
BREEZE-M DEB (TANK) 4.2 00:51:34 10° NW 00:56:10 55° NE 00:58:34 45° E
Helios 1A Rocket 4.3 00:59:45 29° WSW 00:59:45 29° WSW 01:02:03 10° SW
SL-08 R/B 4.3 00:55:14 10° N 01:01:35 81° E 01:07:55 10° S
Cosmos 2237 4.4 00:58:33 10° SSW 01:03:17 59° SSE 01:03:17 59° SSE
Cosmos 1937 Rocket 3.5 00:59:10 10° SSW 01:04:15 77° W 01:04:15 77° W
SL-16 R/B 4.1 01:08:57 10° S 01:10:23 18° S 01:10:23 18° S
Cosmos 967 Rocket 4.4 01:08:10 10° SSW 01:14:29 83° WNW 01:14:48 79° NNW
Cosmos 1980 Rocket 4.1 01:30:32 10° WSW 01:35:04 24° WNW 01:36:57 20° NNW
Cosmos 2263 Rocket 3.7 01:47:17 10° NW 01:52:15 32° WSW 01:52:20 32° WSW
COSMOS 2455 4.4 01:53:12 10° SW 01:56:21 31° WSW 01:56:21 31° WSW
CZ-3 R/B 4.0 09:25:11 56° SW 09:27:14 57° SSW 09:38:07 10° SE
COSMOS 2406 4.2 10:01:54 42° E 10:01:54 42° E 10:06:48 10° NE
Cosmos 2082 Rocket 4.2 10:10:40 17° NNE 10:10:40 17° NNE 10:11:52 10° NNE
CZ-3 Stage 3 4.0 10:07:38 52° SW 10:10:07 61° S 10:42:13 10° ESE
USA 59 Rocket 2.1 10:11:24 26° ENE 10:11:24 26° ENE 10:14:39 10° ESE
Cosmos 967 Rocket 4.4 10:24:59 78° S 10:24:59 78° S 10:30:59 10° SSE
Cosmos 1980 Rocket 3.0 10:32:10 38° S 10:32:10 38° S 10:35:36 10° S
Cosmos 2180 Rocket 4.4 10:33:48 52° N 10:35:30 89° W 10:41:51 10° S
Cosmos 2369 3.7 10:39:08 65° N 10:39:59 79° ENE 10:45:37 10° SSE
NOSS 2-1 (C) 4.4 10:40:19 45° ENE 10:40:19 45° ENE 10:45:08 10° SE
FengYun 1-2 T 4.3 10:35:08 10° NNE 10:40:49 80° ESE 10:46:27 10° S
BREEZE-M DEB (TANK) 3.8 10:44:56 54° NW 10:46:20 77° NNE 10:50:05 10° ESE
Cosmos 1892 Rocket 4.3 10:44:07 10° S 10:48:20 52° E 10:52:36 10° NNE
COSMO-SKYMED 1 4.3 10:50:36 10° SE 10:54:09 29° ENE 10:57:43 10° N
Cosmos 2142 Rocket 4.5 10:56:52 52° WNW 10:57:33 55° W 11:03:31 10° SSW
COSMOS 2455 2.7 10:59:43 45° NW 11:01:40 76° WSW 11:07:39 10° SSE
Cosmos 2360 Rocket 4.2 10:57:44 10° N 11:02:10 23° NE 11:06:34 10° ESE
Cosmos 2333 Rocket 3.6 10:59:11 10° N 11:04:28 36° ENE 11:09:42 10° SE
NOSS 3-1 (C) 4.2 11:01:55 24° NNW 11:07:08 80° ENE 11:16:20 10° SE
Cosmos 1092 Rocket 4.2 11:04:53 10° S 11:11:08 72° E 11:17:21 10° N
Cosmos 1898 Rocket 3.4 11:10:26 44° NW 11:11:55 62° WSW 11:17:06 10° S
Cosmos 1428 Rocket 4.4 11:06:27 10° SSW 11:12:35 63° W 11:18:49 10° N
Nadezhda 4 Rocket 4.1 11:07:26 10° SSW 11:13:32 51° W 11:19:39 10° N
IRS-1D 3.4 11:12:57 10° N 11:17:57 68° WNW 11:23:01 10° SSW
SL-24 R/B 4.2 11:13:55 10° N 11:19:04 78° WNW 11:23:31 10° SSW
Cosmos 2219 Rocket 4.5 11:15:22 10° N 11:19:22 19° NE 11:23:21 10° E
SKYMED 2 3.4 11:21:31 10° S 11:25:50 75° WSW 11:29:04 18° NNW
Cosmos 2322 Rocket 3.4 11:20:39 10° N 11:26:00 40° ENE 11:31:17 10° SE
Helios 1A Rocket 2.9 11:24:11 10° SSE 11:27:27 57° ENE 11:30:06 15° N
OAO 2 Rocket 4.3 11:23:47 17° SW 11:27:29 42° SSE 11:32:19 10° E
Cosmos 2195 Rocket 4.5 11:21:52 10° SSW 11:28:01 60° W 11:34:16 10° N
Cosmos 2058 Rocket 3.4 11:24:52 10° N 11:29:16 65° E 11:33:36 10° SSE
Okean 1 3.9 11:29:14 10° N 11:32:41 48° E 11:36:08 10° SSE
Cosmos 1937 Rocket 3.5 11:29:56 24° NW 11:32:47 54° WSW 11:37:45 10° S
Cosmos 858 Rocket 4.4 11:30:01 15° NNW 11:34:16 77° WSW 11:39:26 10° S
Meteor 2-20 4.3 11:28:41 10° N 11:34:48 81° W 11:40:51 10° S
Meteor 2-3 Rocket 4.1 11:34:54 10° SSW 11:40:18 42° WNW 11:45:41 10° N
Cosmos 1606 Rocket 4.5 11:42:54 26° W 11:43:20 27° W 11:47:00 10° SSW
SL-4 R/B 3.9 11:43:26 11° N 11:44:47 13° NNE 11:46:21 10° NE
COSMOS 2406 4.1 11:44:05 22° W 11:45:53 25° WNW 11:50:33 10° N
CZ-4 R/B 4.2 11:41:43 10° N 11:45:58 38° WNW 11:50:12 10° SW
Meteor 1-26 Rocket 4.2 11:42:03 10° N 11:47:39 83° W 11:53:24 10° S
Cosmos 405 Rocket 2.3 11:47:36 10° S 11:50:50 81° E 11:54:06 10° N
Cosmos 2082 Rocket 4.0 11:52:33 12° NNW 11:52:33 12° NNW 11:53:31 10° NNW
Cosmos 2151 4.5 11:49:07 10° SSE 11:52:52 37° E 11:56:40 10° NNE
Tiangong -0.6 11:51:40 20° WSW 11:52:55 26° SSW 11:55:40 10° SSE
SL-16 R/B 2.2 11:48:33 10° NNW 11:54:09 66° WSW 11:59:44 10° S
Cosmos 1814 Rocket 3.9 11:49:04 10° SSW 11:54:14 68° WNW 11:59:30 10° NNE
